Date,TemperatureHighF,TemperatureAvgF,TemperatureLowF,DewpointHighF,DewpointAvgF,DewpointLowF,HumidityHigh,HumidityAvg,HumidityLow,PressureMaxIn,PressureMinIn,WindSpeedMaxMPH,WindSpeedAvgMPH,GustSpeedMaxMPH,PrecipitationSumIn
2013-2-2,32.6,30.9,29.2,28.1,22.6,12.7,90,74,44,30.15,30.00,3,2,0,0.00
2013-2-3,34.9,32.5,28.8,29.6,28.1,25.0,93,84,67,29.98,29.80,2,0,0,0.03
2013-2-4,37.2,32.0,27.2,29.7,19.0,13.0,74,59,52,30.08,29.89,5,2,0,0.01
2013-2-5,38.9,37.8,35.6,33.7,31.9,28.9,86,79,68,29.89,29.82,4,2,0,0.00
2013-2-6,44.1,38.1,33.4,35.6,31.3,27.7,94,78,56,30.32,29.90,4,1,0,0.00
2013-2-7,40.6,36.4,31.3,33.0,29.0,25.4,89,75,62,30.42,30.19,4,3,0,0.00
2013-2-8,41.2,38.8,36.5,40.1,36.2,30.6,97,91,72,30.17,29.65,9,3,0,0.50
2013-2-9,38.8,35.2,31.2,28.9,22.5,19.8,71,60,51,30.30,29.83,7,5,0,0.00
2013-2-10,39.9,35.8,28.9,30.5,22.0,15.8,75,58,38,30.45,30.25,5,3,10,0.00
2013-2-11,56.4,46.4,38.4,53.1,43.6,32.5,98,90,79,30.24,29.66,6,3,10,0.37
2013-2-12,52.7,46.1,41.0,44.0,34.4,31.2,93,65,46,29.96,29.74,3,1,10,0.00
2013-2-13,47.3,40.0,35.6,38.9,34.3,30.4,95,80,63,29.92,29.61,6,3,10,0.24
2013-2-14,45.0,39.9,35.5,36.8,34.7,33.2,95,82,65,29.99,29.70,4,1,10,0.01
2013-2-15,56.3,46.2,37.7,40.8,37.6,35.2,93,73,49,30.00,29.85,6,3,10,0.00
2013-2-16,38.8,37.1,35.3,36.4,33.3,24.3,94,87,64,29.98,29.76,8,4,10,0.11
2013-2-17,35.1,31.8,27.8,24.1,17.7,13.7,67,56,46,30.12,29.75,7,4,10,0.00
2013-2-18,38.0,31.7,24.9,29.2,15.8,11.2,72,52,35,30.34,30.15,6,3,10,0.00
2013-2-19,45.9,41.9,38.1,44.3,35.6,26.1,95,79,59,30.15,29.70,8,5,10,0.09
2013-2-20,40.2,35.4,28.5,30.1,20.8,13.6,67,55,48,30.11,29.80,7,4,11,0.01
2013-2-21,38.3,32.4,27.0,22.4,18.2,14.8,64,56,48,30.27,30.09,6,4,11,0.00
2013-2-22,35.9,33.6,31.0,33.4,26.0,21.4,93,74,62,30.36,30.20,7,2,11,0.02
2013-2-23,43.0,39.3,35.4,42.7,38.8,34.1,99,98,95,30.18,29.76,4,2,11,0.14
2013-2-24,50.3,43.0,36.3,43.6,34.9,25.3,99,75,53,30.04,29.76,6,3,11,0.01
2013-2-25,44.5,38.4,33.4,31.3,27.3,24.5,82,65,52,30.19,30.05,5,2,11,0.00
2013-2-26,45.2,39.5,33.9,44.1,36.4,31.5,96,88,83,30.19,29.62,14,6,16,0.27
2013-2-27,54.8,47.9,42.5,48.7,43.4,39.4,99,85,63,29.65,29.44,3,1,16,0.03
2013-2-28,50.7,44.2,40.3,39.8,35.9,31.4,89,73,51,29.68,29.58,4,1,16,0.18
2013-3-1,45.5,42.7,40.6,35.5,33.7,29.7,77,71,64,29.82,29.67,4,1,16,0.00
2013-3-2,39.7,37.3,33.9,28.6,26.6,24.1,76,65,58,29.83,29.76,4,2,16,0.00
2013-3-3,39.5,35.7,32.5,25.8,24.1,22.2,73,63,56,29.85,29.75,6,4,11,0.00
2013-3-15,49.9,46.9,42.3,36.7,31.7,22.8,68,56,40,30.02,29.76,3,2,10,0.00
2013-3-16,56.2,47.0,39.4,45.5,38.3,34.7,88,72,58,29.87,29.63,7,3,10,0.00
2013-3-17,41.6,39.5,37.6,36.0,32.9,30.1,90,78,67,30.25,29.89,8,4,10,0.00
2013-3-18,41.3,38.9,34.9,39.4,33.3,26.8,97,81,64,30.30,29.88,7,4,10,0.32
2013-3-19,52.8,44.9,39.4,44.4,38.4,24.4,98,81,40,29.84,29.69,4,2,10,0.06
2013-3-20,51.7,45.6,39.1,35.7,25.1,21.1,69,45,31,29.97,29.75,4,2,10,0.00
2013-3-21,44.8,37.4,32.4,37.4,22.9,15.2,81,57,40,29.85,29.70,10,5,10,0.00
2013-3-22,46.3,38.6,31.7,26.0,22.1,16.2,62,52,43,29.97,29.85,3,2,10,0.00
2013-3-23,51.3,42.6,35.3,32.9,27.9,23.5,66,56,44,30.00,29.88,6,2,10,0.00
2013-3-24,43.2,39.6,35.5,34.2,28.7,26.4,95,66,53,29.97,29.65,6,3,10,0.05
2013-3-25,37.3,35.9,34.0,35.8,34.6,33.2,97,95,93,29.65,29.46,7,4,10,0.84
2013-3-26,50.6,42.8,36.1,38.6,35.4,32.1,95,76,52,29.93,29.66,4,1,10,0.00
2013-3-27,50.5,44.6,40.7,34.8,33.3,31.5,75,65,52,30.07,29.93,4,2,10,0.00
2013-3-28,48.3,44.7,39.9,36.8,33.6,31.7,76,65,54,30.17,30.05,5,2,10,0.00
2013-3-29,53.8,46.6,38.8,37.6,34.3,31.4,78,63,46,30.21,30.10,3,1,10,0.00
2013-3-30,56.0,48.4,39.9,44.1,38.0,34.1,89,68,48,30.19,30.09,3,1,10,0.00
2013-3-31,57.1,50.9,46.8,51.1,43.8,36.4,95,77,63,30.11,29.72,9,4,11,0.03
2013-4-1,65.4,53.2,45.9,49.9,42.8,28.0,97,71,46,29.92,29.67,5,2,11,0.01
2013-4-2,50.3,45.1,40.3,28.3,23.0,20.2,52,42,32,30.13,29.94,4,3,11,0.00
2013-4-3,52.9,44.6,39.3,26.0,22.4,19.4,51,42,32,30.34,30.14,7,3,11,0.00
2013-4-4,46.9,41.1,35.3,37.6,24.5,18.9,90,52,39,30.39,30.10,6,4,11,0.03
2013-4-5,59.7,47.9,39.6,44.1,39.1,33.1,95,75,39,30.08,29.79,4,2,11,0.78
2013-4-6,50.8,47.6,42.3,37.0,29.3,24.3,64,50,37,30.32,29.99,7,3,11,0.00
2013-4-7,61.0,50.7,42.9,47.6,41.0,31.0,87,70,55,30.28,29.99,10,6,11,0.00
2013-4-8,73.5,63.2,54.1,55.0,49.9,45.6,73,63,46,30.06,29.94,7,3,11,0.00
2013-4-9,83.4,71.5,61.2,57.1,54.7,52.8,74,57,40,30.04,29.92,7,3,11,0.00
2013-4-10,86.7,75.9,66.6,59.6,57.1,54.8,67,53,38,29.93,29.75,6,3,11,0.00
2013-4-11,79.8,66.7,54.0,63.5,58.2,52.3,94,76,49,29.85,29.74,10,4,13,0.00
2013-4-12,66.5,56.6,52.4,66.2,55.8,51.5,99,97,94,29.82,29.56,8,5,13,0.12
2013-4-13,62.9,56.6,50.3,51.2,47.9,44.1,96,74,51,29.91,29.69,9,4,13,0.00
2013-4-14,62.9,57.4,49.8,52.0,48.2,44.8,93,72,54,30.11,29.91,5,2,13,0.00
2013-4-15,60.5,57.4,54.5,50.7,49.5,48.1,84,75,67,30.27,30.10,6,4,13,0.00
2013-4-16,69.0,61.7,54.5,58.2,54.7,50.0,86,78,67,30.29,30.11,9,5,13,0.00
2013-4-17,73.2,64.8,61.5,64.4,59.4,54.9,92,83,74,30.20,30.10,8,4,13,0.00
2013-4-18,73.8,64.4,59.0,64.8,58.9,55.7,97,83,64,30.21,30.02,8,5,13,0.01
2013-4-19,76.3,68.9,63.6,66.5,63.6,60.6,95,84,69,29.99,29.60,10,7,13,0.00
2013-4-20,60.4,55.1,50.7,52.7,39.2,33.1,92,57,38,30.27,29.73,5,3,13,0.00
2013-4-21,52.0,48.5,43.9,36.4,31.9,29.2,71,53,42,30.57,30.29,7,5,13,0.00
2013-4-22,53.8,49.1,43.2,45.3,41.4,36.4,84,75,67,30.57,30.39,6,5,13,0.00
2013-4-23,57.3,52.0,47.0,48.2,45.5,42.2,89,79,66,30.38,30.11,7,4,13,0.00
2013-4-24,69.6,59.9,47.3,58.3,53.2,45.4,96,80,62,30.10,29.79,9,6,13,0.00
2013-4-25,68.3,56.0,49.8,56.1,42.1,36.1,76,60,48,30.26,29.87,6,3,13,0.00
2013-4-26,63.6,56.7,49.0,50.0,44.9,39.6,91,66,44,30.41,30.26,6,2,13,0.00
2013-4-27,67.8,59.5,50.4,51.9,45.4,38.9,94,63,38,30.40,30.27,4,1,13,0.00
2013-4-28,67.4,59.9,51.0,50.6,45.1,38.2,88,60,41,30.27,30.14,6,3,13,0.00
2013-4-29,59.9,57.2,54.7,58.2,54.7,44.6,97,92,61,30.15,30.04,8,5,10,0.00
2013-4-30,60.5,58.1,56.7,57.3,55.7,53.3,97,92,80,30.24,30.06,8,6,10,0.00
2013-5-1,65.4,58.2,50.8,52.7,48.9,45.0,88,73,48,30.40,30.25,9,5,10,0.00
2013-5-2,65.4,57.1,50.1,55.0,50.0,46.2,95,78,53,30.42,30.29,7,4,10,0.00
2013-5-3,60.4,56.2,51.5,51.1,47.6,44.2,91,74,62,30.36,30.28,9,6,11,0.00
2013-5-4,64.4,56.3,49.6,52.8,48.0,44.4,91,75,57,30.31,30.17,9,5,12,0.00
2013-5-5,60.1,53.8,48.1,51.0,47.3,43.6,88,79,67,30.23,30.14,7,5,12,0.00
2013-5-6,61.9,55.8,50.1,58.6,53.8,47.8,97,93,89,30.17,30.05,9,6,14,0.00
2013-5-7,63.0,60.5,58.2,61.5,59.5,57.6,99,96,93,30.05,29.92,8,7,14,0.00
2013-5-8,69.3,61.7,56.8,62.2,58.2,56.2,98,89,63,29.98,29.92,5,2,15,0.00
2013-5-9,72.4,63.2,56.6,60.9,58.5,56.0,98,85,62,29.97,29.89,2,1,15,0.00
2013-5-10,80.0,70.6,59.7,66.6,62.1,58.8,97,76,50,29.99,29.85,7,2,15,0.00
2013-5-11,77.6,69.2,64.9,68.0,64.9,62.6,96,87,66,29.90,29.67,5,3,15,0.00
2013-5-12,65.7,62.7,57.7,62.9,47.7,33.9,96,61,35,29.98,29.71,4,2,15,0.00
2013-5-13,61.0,56.3,52.3,37.3,33.8,29.1,55,43,33,30.11,29.99,4,3,15,0.00
2013-5-14,63.2,56.3,48.7,47.3,35.7,30.2,66,46,35,30.18,30.04,4,2,15,0.00
2013-5-15,78.2,67.6,57.2,64.7,56.3,45.4,84,68,59,30.05,29.65,8,4,15,0.00
2013-5-16,82.4,76.1,70.6,64.0,61.7,58.8,72,61,51,29.85,29.70,2,1,15,0.00
2013-5-17,76.6,71.4,64.7,61.3,56.4,50.8,84,61,41,30.12,29.86,6,2,15,0.00
2013-5-18,66.3,63.3,60.7,59.7,56.4,51.3,95,79,59,30.21,30.13,6,5,15,0.00
2013-5-19,72.4,66.7,61.1,67.7,64.5,60.0,98,93,83,30.18,30.07,6,3,15,0.00
2013-5-20,80.7,72.9,68.3,70.4,68.3,66.5,95,86,69,30.10,29.96,4,3,15,0.00
2013-5-21,80.3,73.9,68.8,70.4,68.9,67.3,95,85,72,29.98,29.86,4,2,15,0.00
2013-5-22,81.3,75.9,71.5,72.6,70.9,69.7,95,85,74,29.92,29.82,7,4,15,0.00
2013-5-23,77.5,74.0,71.3,70.0,69.1,68.3,93,85,77,29.88,29.73,7,5,15,0.00
2013-5-24,71.2,60.0,53.9,69.1,53.3,41.2,96,79,62,30.08,29.71,7,4,15,0.00
2013-5-25,65.0,58.5,48.9,43.5,41.3,38.9,71,54,42,30.10,30.03,5,3,12,0.00
2013-5-26,70.8,63.2,55.0,48.3,43.4,41.0,61,49,39,30.16,30.09,3,2,12,0.00
2013-5-27,70.7,65.1,58.8,53.3,50.3,47.1,80,59,44,30.24,30.15,4,1,12,0.00
2013-5-28,80.0,69.1,64.0,68.4,62.1,54.5,93,79,65,30.17,30.03,5,3,12,0.00
2013-5-29,84.4,76.3,70.3,70.9,68.2,65.9,89,77,61,30.09,30.05,5,3,12,0.00
2013-5-30,86.5,80.5,75.9,71.6,69.1,66.2,79,69,53,30.15,30.07,4,2,12,0.00
2013-5-31,87.6,78.5,73.0,71.1,68.5,66.1,83,72,50,30.13,30.00,6,3,12,0.00
2013-6-1,88.3,80.2,72.9,72.0,70.1,67.9,86,72,56,30.02,29.90,5,4,12,0.00
2013-6-2,85.7,79.0,71.7,72.0,70.0,68.3,91,75,61,29.90,29.81,6,3,12,0.00
2013-6-3,77.3,72.5,70.1,70.6,69.0,66.7,95,89,77,29.87,29.79,3,1,12,0.00
2013-6-4,73.3,69.3,65.2,67.6,55.2,49.0,87,62,45,30.08,29.89,5,2,12,0.00
2013-6-5,78.1,71.1,64.2,62.1,59.6,57.5,89,68,50,30.15,30.04,4,2,12,0.00
2013-6-6,75.3,70.0,63.9,66.6,61.6,57.8,91,75,65,30.07,29.87,7,5,12,0.00
2013-6-7,71.7,70.7,68.4,70.8,69.3,66.9,98,95,90,29.84,29.51,8,5,12,0.00
2013-6-8,75.8,70.9,67.5,68.7,66.5,64.8,97,87,70,30.05,29.62,4,1,12,2.04
2013-6-9,80.6,74.5,69.6,72.4,69.4,67.4,95,84,67,30.17,30.05,4,2,12,0.00
2013-6-10,80.5,74.6,70.7,74.8,72.1,67.8,99,92,82,30.08,29.79,8,5,12,0.00
2013-6-11,83.7,76.3,70.4,71.0,69.2,66.9,97,80,59,29.80,29.73,2,1,12,0.00
2013-6-12,84.5,78.5,73.1,75.2,70.0,66.8,85,76,66,29.83,29.76,3,1,12,0.00
2013-6-13,87.5,77.2,71.7,73.6,69.8,63.4,91,79,58,29.78,29.44,7,4,12,0.00
2013-6-14,74.9,68.4,60.7,62.6,59.7,54.9,93,75,56,29.90,29.51,9,3,12,0.00
2013-6-15,83.1,74.8,67.4,66.8,62.2,60.0,84,66,46,30.03,29.92,2,1,12,0.00
2013-6-16,84.3,76.9,71.6,71.7,69.0,66.2,93,77,56,29.99,29.84,3,1,12,0.00
2013-6-17,85.0,78.1,73.5,73.5,71.3,69.6,89,80,60,29.93,29.85,5,2,12,0.00
2013-6-18,76.8,72.4,66.9,73.4,69.6,64.5,95,91,81,29.90,29.76,7,3,12,0.00
2013-6-19,76.2,70.8,67.0,65.8,64.4,61.8,89,81,62,30.11,29.84,6,2,12,0.00
2013-6-20,79.0,71.5,64.9,62.5,59.8,54.0,86,68,55,30.25,30.13,4,2,12,0.00
2013-6-21,80.0,71.6,64.2,66.6,60.9,52.8,87,70,51,30.28,30.21,5,2,12,0.00
2013-6-22,83.0,75.4,66.3,70.2,66.6,63.0,91,75,54,30.23,30.13,5,2,7,0.00
2013-6-23,79.5,75.3,71.4,74.3,71.2,67.0,96,87,80,30.16,30.05,4,2,7,0.00
2013-6-24,87.7,80.0,75.0,76.7,74.1,71.2,94,83,68,30.09,29.99,4,1,7,0.00
2013-6-25,90.6,81.9,73.4,75.6,73.1,70.6,94,76,55,30.00,29.86,2,1,7,0.00
2013-6-26,89.0,80.2,72.3,76.8,72.5,68.5,90,78,61,29.92,29.77,5,1,7,0.00
2013-6-27,84.1,77.7,73.5,75.7,72.7,70.7,93,85,76,29.80,29.59,8,2,8,0.00
2013-6-28,86.7,77.7,71.3,73.8,72.6,70.3,97,85,64,29.60,29.47,7,2,8,0.00
2013-6-29,85.2,77.8,71.2,76.0,72.5,70.6,98,85,62,29.66,29.49,5,2,8,0.00
2013-6-30,82.6,79.8,77.7,76.4,75.5,74.3,93,87,80,29.82,29.67,5,4,8,0.00
2013-7-1,80.1,77.9,75.3,75.9,74.7,71.8,96,90,84,29.96,29.82,7,4,10,0.00
2013-7-2,82.4,78.0,74.7,75.6,74.2,72.1,96,89,78,30.14,29.99,6,4,10,0.00
2013-7-3,86.2,79.8,76.1,77.2,75.1,72.7,94,86,73,30.21,30.14,6,4,10,0.00
2013-7-4,85.9,80.8,76.9,75.8,75.1,74.3,94,83,69,30.24,30.16,6,4,10,0.00
2013-7-5,86.7,82.2,77.5,77.2,75.4,73.3,90,80,69,30.21,30.10,7,4,10,0.00
2013-7-6,89.5,84.6,78.9,77.3,76.0,74.8,89,76,63,30.15,30.04,5,2,10,0.00
2013-7-7,90.0,84.2,76.7,76.6,74.7,70.1,85,74,64,30.07,29.97,5,2,10,0.00
2013-7-8,84.3,78.3,75.6,74.1,71.7,69.8,89,81,63,30.07,30.02,1,0,10,0.00
2013-7-9,87.7,81.6,78.3,76.4,74.5,72.0,87,79,68,30.07,29.97,4,1,10,0.00
2013-7-10,86.3,81.7,76.8,77.9,76.5,73.3,90,84,75,29.99,29.83,5,2,10,0.00
2013-7-11,82.6,78.3,75.8,74.5,73.1,71.1,92,85,71,29.89,29.83,4,1,10,0.00
2013-7-12,77.6,73.2,71.1,74.1,71.3,69.7,97,94,84,29.96,29.85,6,3,10,0.00
2013-7-13,85.4,78.4,70.5,77.1,73.9,69.6,97,86,73,30.23,29.98,4,2,10,0.00
2013-7-14,87.7,81.8,76.7,79.1,75.3,71.9,98,82,62,30.31,30.25,4,2,10,0.00
2013-7-15,93.0,82.7,77.1,79.3,76.3,74.2,92,82,59,30.27,30.14,1,0,10,0.00
2013-7-16,90.9,85.5,81.5,78.7,76.7,73.6,89,76,61,30.18,30.12,4,1,10,0.00
2013-7-17,92.4,85.6,80.6,80.1,77.1,74.4,90,77,57,30.16,30.06,2,1,10,0.00
2013-7-18,94.1,86.3,80.5,81.7,79.0,77.2,91,80,61,30.08,29.98,3,1,10,0.00
2013-7-19,93.3,88.0,82.5,81.4,78.6,77.5,86,74,62,29.98,29.84,6,2,10,0.00
2013-7-20,91.9,86.0,81.8,79.5,77.8,76.8,86,77,64,29.87,29.76,3,2,10,0.00
2013-7-21,89.8,83.0,78.8,77.4,74.4,71.3,86,76,55,29.91,29.84,4,1,10,0.00
2013-7-22,87.8,82.3,77.4,78.4,76.0,74.2,93,82,65,29.89,29.74,4,1,10,0.00
2013-7-23,89.9,82.2,76.4,76.8,74.9,70.8,96,79,61,29.73,29.60,5,1,10,0.00
2013-7-24,82.5,79.8,76.7,72.8,70.8,67.4,84,74,69,29.85,29.65,5,2,10,0.00
2013-7-25,75.8,71.7,67.7,68.1,63.9,60.2,81,76,68,29.99,29.86,7,5,10,0.00
2013-7-26,81.5,74.6,68.2,67.7,64.7,62.4,86,72,53,30.05,29.98,4,2,10,0.00
2013-7-27,83.6,77.8,72.9,72.5,69.7,67.4,94,77,63,30.02,29.91,6,4,10,0.00
2013-7-28,85.0,77.8,74.4,74.3,71.8,68.7,93,82,67,29.92,29.85,5,4,10,0.00
2013-7-29,80.5,75.6,71.9,72.2,63.5,59.1,93,67,50,30.11,29.94,4,2,10,0.00
2013-7-30,83.0,76.1,71.7,67.4,62.9,59.9,85,64,49,30.18,30.11,2,1,10,0.00
2013-7-31,80.6,76.1,71.2,71.8,68.7,66.3,89,78,67,30.12,30.00,4,2,10,0.00
2013-8-1,76.8,74.1,70.7,74.0,71.4,68.6,96,92,81,30.00,29.80,5,2,10,0.00
2013-8-2,84.8,78.1,71.5,71.6,68.6,64.6,92,75,51,29.93,29.80,4,2,10,0.00
2013-8-3,77.1,77.1,77.1,69.3,69.3,69.3,77,77,77,29.91,29.91,0,0,10,0.00
2013-8-23,77.4,75.5,72.9,70.3,65.6,56.5,82,72,52,30.06,29.94,4,3,4,0.00
2013-8-24,80.7,73.7,68.1,70.2,65.7,62.5,87,76,64,30.30,30.07,7,3,8,0.00
2013-8-25,79.5,71.9,65.0,66.1,61.5,55.0,94,72,43,30.39,30.25,5,1,8,0.00
2013-8-26,83.8,75.5,68.3,69.5,64.3,58.7,78,69,56,30.27,29.99,6,2,8,0.00
2013-8-27,85.9,79.2,71.7,74.7,71.3,68.2,90,77,65,29.97,29.84,3,1,8,0.00
2013-8-28,84.8,78.1,74.0,75.7,73.8,72.6,96,87,71,29.87,29.79,2,0,8,0.00
2013-8-29,82.1,76.4,73.0,75.2,72.5,67.9,96,88,76,30.00,29.80,7,4,8,0.00
2013-8-30,82.5,76.2,70.1,73.1,70.3,67.0,94,82,70,30.01,29.88,6,3,8,0.00
2013-8-31,86.0,80.1,74.7,75.5,72.9,70.8,90,79,67,29.89,29.78,7,4,9,0.00
2013-9-1,87.4,80.8,74.5,76.6,73.8,71.9,94,80,65,29.82,29.74,4,2,9,0.00
2013-9-2,86.5,80.5,75.2,76.9,75.1,73.0,94,84,70,29.77,29.69,5,2,9,0.00
2013-9-3,84.8,80.0,74.7,75.0,68.3,61.0,91,69,48,29.90,29.69,4,2,9,0.00
2013-9-4,80.4,73.8,68.3,64.9,61.1,58.4,73,65,51,30.04,29.91,4,2,9,0.00
2013-9-5,84.2,77.0,71.0,66.6,63.9,57.5,83,65,50,30.07,29.96,5,2,9,0.00
2013-9-6,73.4,68.5,62.2,60.3,54.6,50.7,79,62,50,30.22,30.09,7,4,9,0.00
2013-9-7,80.5,71.3,63.8,65.7,61.8,58.9,88,73,49,30.12,29.92,4,2,9,0.00
2013-9-8,87.7,77.2,70.4,70.5,66.8,64.2,85,71,51,30.00,29.83,5,2,9,0.00
2013-9-9,77.3,71.2,63.3,68.7,61.8,54.1,87,72,63,30.16,30.02,7,4,9,0.00
2013-9-10,86.5,78.7,71.3,75.5,72.5,69.2,95,82,67,30.15,30.06,5,3,9,0.00
2013-9-11,90.1,82.4,76.2,75.3,74.2,72.3,90,77,56,30.11,30.00,6,3,9,0.00
2013-9-12,88.9,78.4,71.6,74.6,72.0,69.7,97,82,58,29.98,29.72,5,3,9,0.01
2013-9-13,78.0,73.3,68.3,71.9,63.5,55.2,97,73,48,29.86,29.66,3,2,9,0.00
2013-9-14,67.7,64.4,60.2,56.2,52.8,50.6,75,66,56,30.13,29.87,6,3,9,0.00
2013-9-15,68.0,61.9,59.0,57.4,54.8,53.5,82,78,69,30.20,30.13,5,3,9,0.00
2013-11-9,53.7,52.4,50.5,40.3,36.9,33.0,68,56,47,30.18,30.02,7,4,8,0.00
2013-11-10,64.4,54.2,49.1,42.8,38.2,33.0,70,55,40,30.18,29.91,6,2,8,0.00
2013-11-11,54.6,50.0,44.6,43.6,37.1,33.6,76,61,50,30.28,30.01,6,2,8,0.00
2013-11-12,53.6,44.8,38.2,40.8,30.4,20.4,75,57,44,30.35,29.95,9,4,12,0.00
2013-11-13,43.8,38.9,34.8,26.5,24.5,21.5,67,56,45,30.43,30.36,5,2,12,0.00
2013-11-14,53.0,45.2,37.8,38.1,30.4,24.6,75,57,39,30.38,30.22,5,2,12,0.00
2013-11-15,53.5,48.4,43.8,42.1,35.7,32.0,83,62,49,30.26,30.18,4,2,12,0.00
2013-11-16,52.1,49.8,47.5,50.8,48.4,42.4,98,95,81,30.31,30.22,3,1,12,0.00
2013-11-17,64.8,57.0,49.6,59.7,54.7,49.1,99,92,79,30.22,29.80,7,2,12,0.00
2013-11-18,67.8,60.1,54.3,62.0,47.4,34.5,97,66,40,29.87,29.68,6,2,12,0.00
2013-11-19,52.4,47.5,42.5,34.8,32.2,29.6,61,55,50,30.33,29.88,7,4,12,0.00
2013-11-20,45.7,41.7,37.6,35.6,31.6,27.5,81,67,58,30.54,30.33,6,4,12,0.00
2013-11-21,49.2,47.0,42.5,44.3,41.8,36.8,90,82,76,30.52,30.37,2,1,8,0.00
2013-11-22,62.5,53.9,46.7,54.6,50.8,44.8,97,90,75,30.37,29.97,4,1,8,0.00
2013-11-23,54.6,47.7,37.5,53.8,34.5,22.8,97,62,42,30.13,29.98,7,3,8,0.00
2013-11-24,36.0,30.9,28.4,20.5,15.1,13.0,59,52,46,30.48,30.15,8,5,12,0.00
2013-11-25,37.7,31.3,26.4,23.5,17.7,15.3,64,57,46,30.56,30.35,3,2,12,0.00
2013-11-26,57.7,41.7,36.4,57.1,33.7,20.2,98,76,46,30.35,29.57,9,3,12,0.00
2013-11-27,61.2,43.1,34.0,60.1,39.7,23.5,97,88,65,29.94,29.46,12,4,15,0.00
2013-11-28,37.9,34.0,31.0,28.2,21.8,18.4,80,61,46,30.47,30.03,3,1,15,0.00
2013-11-29,40.7,36.3,31.4,29.6,27.3,23.9,87,70,59,30.70,30.45,7,3,15,0.00
2013-11-30,37.6,34.5,30.0,31.9,27.0,23.0,87,74,65,30.70,30.38,5,2,15,0.00
2013-12-1,44.2,38.2,31.5,38.4,34.8,30.5,97,88,79,30.36,30.02,2,0,15,0.00
2013-12-2,45.4,41.7,37.8,40.4,38.4,36.2,94,88,76,30.00,29.86,3,1,15,0.00
2013-12-3,50.1,45.2,42.1,41.6,39.9,38.7,92,82,69,29.98,29.86,2,0,15,0.00
2013-12-4,53.1,49.0,42.3,51.7,46.1,39.9,97,90,81,30.07,29.97,3,1,15,0.00
2013-12-5,60.2,55.9,50.9,59.2,54.9,50.5,99,97,90,30.06,29.93,7,3,15,0.00
2013-12-6,61.7,52.4,40.5,61.1,51.6,39.4,98,97,92,30.12,29.88,9,4,15,0.00
2013-12-7,43.5,40.0,36.1,38.9,34.7,26.9,96,82,69,30.50,30.09,8,5,13,0.00
2013-12-8,35.3,32.9,29.9,33.2,28.4,24.4,97,84,71,30.55,30.27,7,4,13,0.00
2013-12-9,38.6,36.6,34.2,37.3,35.6,33.4,98,96,93,30.25,30.02,4,1,13,0.00
2013-12-10,37.0,36.0,34.5,35.9,33.2,26.0,97,90,67,30.20,29.97,2,1,13,0.00
2013-12-11,40.2,35.6,32.3,32.5,25.9,21.7,92,68,57,30.40,30.22,4,1,13,0.00
2013-12-12,36.2,31.7,29.9,31.6,20.2,14.7,90,63,48,30.41,30.22,7,2,13,0.00
2013-12-13,42.4,37.0,31.2,29.6,23.9,20.5,76,60,45,30.29,30.21,3,1,13,0.00
2013-12-14,46.1,39.7,35.3,45.6,35.3,29.5,98,85,72,30.31,29.66,6,2,13,0.00
2013-12-15,48.1,40.6,35.7,41.2,34.8,27.1,98,81,64,29.92,29.61,4,1,13,0.00
2013-12-16,38.4,35.1,32.9,30.6,26.8,23.4,79,72,67,30.18,29.92,7,3,13,0.00
2013-12-17,40.1,36.3,33.9,36.5,31.6,26.8,91,83,75,30.16,29.93,5,3,13,0.00
2013-12-20,57.0,54.5,49.8,51.9,44.4,35.2,83,69,56,30.09,29.99,4,3,13,0.00
2013-12-21,64.7,59.1,51.0,57.6,52.5,46.9,87,79,68,30.00,29.92,7,4,13,0.00
2013-12-22,69.2,61.6,57.8,63.8,59.1,56.4,96,91,83,30.01,29.85,12,5,13,0.00
2013-12-23,61.9,55.0,42.8,61.6,52.9,34.7,99,93,73,30.18,29.91,7,3,13,0.00
2013-12-24,42.0,37.7,28.4,32.9,26.3,13.7,76,63,49,30.42,30.17,7,5,13,0.00
2013-12-25,30.3,28.4,25.2,24.1,18.0,14.6,78,65,57,30.54,30.41,5,2,13,0.00
2013-12-26,40.6,34.7,29.3,30.8,27.2,23.9,89,74,59,30.39,30.21,3,1,13,0.00
2013-12-27,46.7,40.0,34.0,34.6,29.8,24.5,91,68,45,30.42,30.30,5,1,13,0.01
2013-12-28,52.3,44.6,37.1,35.4,32.5,29.8,76,63,46,30.31,30.12,5,2,13,0.00
2013-12-29,50.8,46.5,42.5,50.0,41.9,33.0,97,86,53,30.10,29.50,9,2,13,0.63
2013-12-30,48.1,42.1,34.7,43.0,36.9,26.3,97,82,68,30.17,29.80,6,2,13,0.00
2013-12-31,44.4,36.9,32.0,32.8,25.6,21.7,72,64,54,30.31,30.09,5,3,13,0.00
2014-1-1,44.7,38.0,31.8,36.0,28.2,21.7,88,68,55,30.41,30.15,5,2,13,0.00
2014-1-2,40.1,36.9,31.2,37.9,35.4,30.4,97,94,91,30.13,29.59,6,3,13,0.06